[[{"header":{"parameterUnit":"m.s-1","parameterCategory":1,"la1":30.2991,"la2":30.254,"lo1":-89.0895,"lo2":-89.0444,"dy":0.0017,"dx":0.0017,"nx":28,"ny":28,"refTime":"2025-04-21T03:00:00:Z","depth":0,"parameterNumber":2,"parameterNumberName":"U-component_of_WINDS"},"data":[0,0,0,0,0,0,0,0,0,0,0,0,0,0,0,0,0,0,0,0,0,0,0,0,0,0,0,0,0,0,0,0,0,0,0,0,0,0,0,0,0,0,0,0,0,0,0,0,0,0,0,0,0,0,0,0,0,0,-2.0941,-2.0941,0,-2.0915,-2.0915,-2.0915,-2.0927,-2.0928,-2.0929,-2.0929,-2.0901,-2.0899,-2.0898,0,0,0,0,0,0,0,0,0,0,0,0,0,-2.1,-2.0999,-2.0941,-2.0941,-2.0941,-2.0915,-2.0915,-2.0915,-2.0927,-2.0928,-2.0929,-2.093,-2.0901,-2.09,-2.0898,0,0,0,0,0,0,0,0,0,0,0,0,0,-2.0974,-2.0998,-2.0941,-2.0944,-2.0944,-2.0916,-2.0915,-2.0915,-2.0927,-2.0928,-2.0929,-2.093,-2.0902,-2.09,-2.0898,-2.0865,0,0,-2.0891,-2.089,0,0,0,0,0,0,0,0,-2.0976,-2.0972,-2.0944,-2.0944,-2.0944,-2.0926,-2.0925,-2.0898,-2.0927,-2.0933,-2.0929,-2.093,-2.0908,-2.0906,-2.0898,-2.0863,-2.0862,-2.0891,-2.089,-2.0889,-2.0888,0,0,0,0,0,0,0,-2.0977,-2.0973,-2.0931,-2.0943,-2.0943,-2.0946,-2.0943,-2.092,-2.0915,-2.0933,-2.0934,-2.0931,-2.0908,-2.09,-2.0898,-2.0862,-2.0891,-2.0889,-2.0888,-2.0887,-2.0798,-2.0797,0,0,0,0,0,0,-2.0979,-2.0975,-2.0932,-2.093,-2.0962,-2.0944,-2.0941,-2.093,-2.0916,-2.0914,-2.093,-2.0931,-2.0903,-2.09,-2.0897,-2.0857,-2.0889,-2.0887,-2.0886,-2.0799,-2.0798,-2.0797,0,0,0,0,0,0,-2.0981,-2.0975,-2.0933,-2.0953,-2.0947,-2.0942,-2.093,-2.0929,-2.0922,-2.0913,-2.0912,-2.0923,-2.0904,-2.09,-2.0873,-2.0856,-2.0886,-2.0884,-2.08,-2.0799,-2.0797,-2.0776,0,0,0,0,0,0,-2.0982,-2.0976,-2.0964,-2.0952,-2.0946,-2.0909,-2.0929,-2.0928,-2.0918,-2.092,-2.0906,-2.0905,-2.0905,-2.0876,-2.0871,-2.0853,-2.0883,-2.0802,-2.08,-2.0798,-2.0778,-2.0774,-2.077,0,0,0,0,0,-2.0984,-2.0958,-2.0963,-2.0958,-2.0931,-2.0909,-2.0905,-2.0905,-2.0917,-2.0904,-2.0899,-2.0906,-2.0859,-2.0873,-2.0867,-2.0849,-2.0803,-2.08,-2.0798,-2.078,-2.0775,-2.077,0,0,0,0,0,0,-2.0967,-2.0957,-2.0962,-2.0932,-2.0921,-2.0911,-2.0895,-2.09,-2.0885,-2.0887,-2.0888,-2.0885,-2.0856,-2.085,-2.0866,-2.0816,-2.0833,-2.0829,-2.0821,-2.0816,-2.0812,-2.0813,-2.0881,0,0,0,0,0,-2.096,-2.0943,-2.0935,-2.0909,-2.0904,-2.09,-2.089,-2.0892,-2.088,-2.0876,-2.0868,-2.0856,-2.0839,-2.0828,-2.0811,-2.0778,-2.0775,-2.0763,-2.0759,-2.0756,-2.0752,-2.0733,-2.0728,-2.0788,-2.0788,-2.0788,0,0,-2.0945,-2.0937,-2.0926,-2.0906,-2.0897,-2.0879,-2.0896,-2.0876,-2.0862,-2.0872,-2.0846,-2.0841,-2.0827,-2.0797,-2.0783,-2.0791,-2.0735,-2.0753,-2.075,-2.0748,-2.073,-2.0724,-2.0719,-2.0786,-2.0787,-2.0787,0,0,-2.0907,-2.0901,-2.0878,-2.087,-2.0857,-2.0855,-2.085,-2.0839,-2.0835,-2.0809,-2.0816,-2.08,-2.077,-2.076,-2.0751,-2.0711,-2.0716,-2.0706,-2.0684,-2.0665,-2.0661,-2.0656,-2.0641,-2.0635,-2.0702,-2.0702,-2.0702,0,-2.089,-2.0863,-2.0865,-2.0845,-2.0835,-2.0844,-2.0821,-2.0812,-2.0795,-2.0788,-2.0797,-2.076,-2.0752,-2.0719,-2.0709,-2.0702,-2.0695,-2.0706,-2.0661,-2.0657,-2.0653,-2.0638,-2.0632,-2.0701,-2.0701,-2.0701,-2.0701,0,-2.0841,-2.0823,-2.0806,-2.0789,-2.0778,-2.0756,-2.0754,-2.0743,-2.0745,-2.0742,-2.0715,-2.0706,-2.0687,-2.068,-2.0682,-2.0647,-2.0652,-2.0662,-2.0677,-2.0646,-2.0632,-2.0626,-2.0699,-2.0699,-2.07,-2.07,0,0,-2.0791,-2.0777,-2.077,-2.0763,-2.075,-2.0735,-2.0714,-2.0696,-2.0685,-2.0674,-2.0655,-2.063,-2.0638,-2.0628,-2.0629,-2.0614,-2.0581,-2.0625,-2.0624,-2.0615,-2.054,-2.0532,-2.0525,-2.0585,-2.0584,-2.0583,-2.0541,0,-2.0752,-2.0714,-2.0716,-2.068,-2.0663,-2.0671,-2.0653,-2.0642,-2.0639,-2.0623,-2.0619,-2.0601,-2.0614,-2.0608,-2.0593,-2.0588,-2.0565,-2.0591,-2.0566,-2.0565,-2.0567,-2.0518,-2.0509,-2.047,-2.0535,-2.0534,-2.0534,0,-2.0701,-2.0687,-2.065,-2.0639,-2.0632,-2.0615,-2.0599,-2.0584,-2.0572,-2.0571,-2.056,-2.0564,-2.0542,-2.056,-2.0528,-2.0546,-2.0536,-2.0532,-2.053,-2.0526,-2.0546,-2.0511,-2.0457,-2.0451,-2.0525,-2.0526,-2.0527,0,-2.0666,-2.0639,-2.0613,-2.0606,-2.0593,-2.0581,-2.0575,-2.0565,-2.0554,-2.054,-2.0533,-2.0517,-2.0507,-2.0494,-2.0493,-2.0507,-2.0461,-2.0479,-2.0458,-2.0458,-2.0447,-2.0447,-2.0388,-2.0443,-2.0443,-2.0443,-2.0444,0,-2.0621,-2.0597,-2.0597,-2.058,-2.0554,-2.0557,-2.053,-2.0526,-2.0517,-2.0499,-2.0506,-2.049,-2.0491,-2.0474,-2.0473,-2.0446,-2.0442,-2.044,-2.044,-2.0438,-2.0438,-2.043,-2.0432,-2.0442,-2.0442,-2.0443,-2.0443,0,-2.0577,-2.0576,-2.0548,-2.0538,-2.0536,-2.0516,-2.0508,-2.0492,-2.049,-2.0468,-2.0463,-2.0459,-2.0439,-2.0438,-2.0415,-2.0415,-2.0382,-2.0386,-2.0386,-2.0386,-2.0364,-2.0365,-2.0297,-2.0287,-2.035,-2.0349,-2.0349,0,-2.0548,-2.053,-2.0518,-2.0507,-2.0501,-2.0483,-2.0472,-2.0474,-2.0462,-2.0448,-2.0434,-2.0415,-2.04,-2.0368,-2.0363,-2.0345,-2.0348,-2.0325,-2.0345,-2.0344,-2.0345,-2.0346,-2.0343,-2.032,-2.032,-2.0319,-2.0319,0,-2.0495,-2.0495,-2.0479,-2.0463,-2.045,-2.0437,-2.0426,-2.0416,-2.0416,-2.0403,-2.0383,-2.0371,-2.0349,-2.0329,-2.0312,-2.0306,-2.0312,-2.0313,-2.0307,-2.0304,-2.0304,-2.0302,-2.0373,-2.0314,-2.0314,-2.0315,-2.0315,-2.0315,-2.0456,-2.044,-2.0429,-2.0411,-2.0403,-2.0392,-2.0376,-2.0372,-2.0356,-2.0337,-2.0339,-2.0317,-2.0306,-2.0284,-2.0276,-2.0259,-2.0266,-2.0258,-2.0255,-2.0252,-2.0249,-2.0309,-2.0256,-2.0256,-2.0256,-2.0256,-2.0256,0,-2.0402,-2.0396,-2.0379,-2.0363,-2.0348,-2.0356,-2.0344,-2.0331,-2.0311,-2.0301,-2.0286,-2.0263,-2.0244,-2.0238,-2.022,-2.0207,-2.0209,-2.0202,-2.0202,-2.02,-2.0245,-2.0251,-2.02,-2.02,-2.02,-2.02,-2.02,-2.02,-2.0372,-2.0345,-2.0344,-2.0313,-2.0307,-2.0285,-2.0277,-2.0267,-2.0258,-2.0232,-2.0217,-2.0213,-2.0204,-2.0185,-2.0169,-2.0167,-2.016,-2.0151,-2.015,-2.0192,-2.0197,-2.0202,-2.0208,-2.015,-2.015,-2.0107,-2.0107,-2.0106]},{"header":{"parameterUnit":"m.s-1","parameterCategory":1,"la1":30.2991,"la2":30.254,"lo1":-89.0895,"lo2":-89.0444,"dy":0.0017,"dx":0.0017,"nx":28,"ny":28,"refTime":"2025-04-21T03:00:00:Z","depth":0,"parameterNumber":3,"parameterNumberName":"V-component_of_WINDS"},"data":[0,0,0,0,0,0,0,0,0,0,0,0,0,0,0,0,0,0,0,0,0,0,0,0,0,0,0,0,0,0,0,0,0,0,0,0,0,0,0,0,0,0,0,0,0,0,0,0,0,0,0,0,0,0,0,0,0,0,3.4757,3.4758,0,3.4863,3.4864,3.4865,3.492,3.492,3.492,3.492,3.503,3.5033,3.5036,0,0,0,0,0,0,0,0,0,0,0,0,0,3.4606,3.4609,3.4757,3.4758,3.476,3.4862,3.4864,3.4865,3.492,3.492,3.492,3.492,3.5029,3.5032,3.5036,0,0,0,0,0,0,0,0,0,0,0,0,0,3.4688,3.4609,3.4757,3.4799,3.4804,3.4862,3.4864,3.4866,3.492,3.492,3.492,3.492,3.5028,3.5032,3.5036,3.5061,0,0,3.5049,3.5051,0,0,0,0,0,0,0,0,3.4683,3.4693,3.4792,3.4796,3.4802,3.4878,3.4851,3.4931,3.492,3.4876,3.492,3.492,3.498,3.4988,3.5007,3.5066,3.5071,3.505,3.5052,3.5054,3.5056,0,0,0,0,0,0,0,3.4677,3.4689,3.4799,3.4793,3.4799,3.4814,3.4826,3.4866,3.4926,3.488,3.4884,3.4896,3.4982,3.5003,3.501,3.5072,3.505,3.5054,3.5056,3.5058,3.5159,3.5159,0,0,0,0,0,0,3.4664,3.4684,3.4795,3.4802,3.4741,3.4817,3.483,3.4854,3.4926,3.4937,3.4895,3.4898,3.4996,3.5005,3.5014,3.505,3.5054,3.5058,3.5061,3.5159,3.5159,3.5159,0,0,0,0,0,0,3.4661,3.4674,3.4791,3.4744,3.476,3.4819,3.4845,3.4856,3.4876,3.4937,3.4949,3.4905,3.4996,3.5008,3.5049,3.5054,3.506,3.5064,3.5159,3.5159,3.5159,3.5119,0,0,0,0,0,0,3.4656,3.4672,3.4681,3.4744,3.4762,3.4823,3.4846,3.4858,3.4883,3.4888,3.495,3.496,3.4997,3.5043,3.5054,3.506,3.5068,3.5159,3.5159,3.5159,3.512,3.5117,3.5115,0,0,0,0,0,3.4651,3.4665,3.4681,3.4694,3.4775,3.4823,3.4834,3.4876,3.4883,3.4894,3.4934,3.4958,3.5052,3.5046,3.5059,3.5067,3.5159,3.5159,3.5159,3.5121,3.5118,3.5115,0,0,0,0,0,0,3.4601,3.4674,3.4693,3.4727,3.4769,3.4832,3.4846,3.4871,3.4911,3.4913,3.4964,3.4977,3.5014,3.5045,3.5038,3.5096,3.5108,3.5111,3.5074,3.5072,3.507,3.5062,3.5071,0,0,0,0,0,3.4594,3.4627,3.4689,3.4714,3.4734,3.4786,3.4809,3.4838,3.4883,3.49,3.4943,3.4986,3.5026,3.5051,3.509,3.5125,3.514,3.5137,3.5134,3.5132,3.5134,3.5157,3.5157,3.516,3.516,3.516,0,0,3.458,3.4624,3.4642,3.4705,3.474,3.4774,3.48,3.4834,3.4861,3.4906,3.4947,3.498,3.5032,3.5071,3.509,3.5097,3.5137,3.5133,3.513,3.5134,3.5157,3.5157,3.5157,3.516,3.516,3.516,0,0,3.4573,3.4608,3.4634,3.4669,3.4722,3.4758,3.4764,3.4824,3.4848,3.489,3.4926,3.4958,3.5024,3.5061,3.5088,3.5096,3.5122,3.5108,3.5096,3.5118,3.5118,3.5118,3.5122,3.5123,3.511,3.511,3.511,0,3.4549,3.46,3.4644,3.4677,3.4705,3.4748,3.4775,3.4807,3.4871,3.489,3.4897,3.4983,3.5021,3.5069,3.5072,3.5092,3.5102,3.5101,3.5114,3.5114,3.5115,3.512,3.5121,3.5108,3.5108,3.5108,3.5108,0,3.4569,3.4604,3.4619,3.4679,3.4709,3.4739,3.4789,3.4814,3.4841,3.4875,3.492,3.4967,3.5018,3.5031,3.5058,3.5084,3.5088,3.5104,3.5117,3.5112,3.5118,3.512,3.5105,3.5106,3.5106,3.5107,0,0,3.4531,3.4617,3.4622,3.4651,3.4714,3.4743,3.4776,3.4825,3.4846,3.489,3.4919,3.4976,3.4992,3.5023,3.5054,3.5073,3.5079,3.5087,3.5089,3.5085,3.5114,3.5101,3.5103,3.5096,3.5097,3.5097,3.511,0,3.4533,3.4593,3.4635,3.4679,3.4714,3.4756,3.4785,3.4828,3.4862,3.4897,3.4935,3.4975,3.4992,3.5012,3.5032,3.5073,3.5085,3.5073,3.5126,3.5127,3.5112,3.5105,3.5092,3.5101,3.5112,3.5112,3.5113,0,3.4543,3.4585,3.4632,3.4694,3.471,3.4735,3.4785,3.4818,3.4868,3.4892,3.4927,3.4959,3.4998,3.5008,3.5063,3.5053,3.5078,3.5102,3.5103,3.511,3.5119,3.5113,3.5105,3.5107,3.5116,3.5116,3.5116,0,3.4512,3.4581,3.4619,3.4642,3.4714,3.4731,3.4762,3.4813,3.4841,3.4885,3.4904,3.4952,3.4979,3.5016,3.5061,3.5064,3.5112,3.5125,3.5134,3.5133,3.5142,3.5141,3.5139,3.5157,3.5157,3.5157,3.5157,0,3.451,3.4538,3.4606,3.4629,3.4662,3.4711,3.4743,3.4778,3.4823,3.4855,3.4895,3.4924,3.4982,3.5019,3.5055,3.5096,3.5108,3.5129,3.5138,3.5126,3.5123,3.5143,3.5143,3.5157,3.5157,3.5157,3.5157,0,3.4481,3.4528,3.4572,3.4637,3.4655,3.4676,3.4733,3.4758,3.4795,3.4836,3.4848,3.4906,3.4953,3.5002,3.5064,3.5088,3.5128,3.5141,3.5111,3.5116,3.5123,3.5122,3.5134,3.5139,3.5151,3.5151,3.5151,0,3.4476,3.4499,3.4567,3.4591,3.4621,3.466,3.4689,3.4739,3.4767,3.4828,3.4846,3.4895,3.4937,3.5009,3.5058,3.5107,3.5122,3.5123,3.5129,3.5117,3.5123,3.5121,3.5125,3.512,3.512,3.5119,3.5119,0,3.4464,3.4487,3.4527,3.4575,3.4609,3.465,3.4692,3.471,3.4769,3.4799,3.4847,3.4879,3.4944,3.4993,3.5048,3.5082,3.5111,3.5117,3.5122,3.5109,3.5092,3.5103,3.5106,3.5116,3.5117,3.5117,3.5117,3.5117,3.4448,3.4471,3.4523,3.4567,3.4604,3.4644,3.4671,3.4712,3.4752,3.4808,3.4836,3.4884,3.4937,3.5014,3.5047,3.5086,3.5095,3.5101,3.5103,3.5104,3.5102,3.5085,3.5096,3.5096,3.5097,3.5097,3.5097,0,3.4439,3.4475,3.4515,3.4573,3.4609,3.4633,3.4682,3.471,3.4751,3.4797,3.4838,3.4894,3.4942,3.4996,3.5048,3.5069,3.5084,3.5081,3.5081,3.5088,3.509,3.5082,3.5069,3.5069,3.5069,3.5069,3.5069,3.5069,3.4439,3.4479,3.4508,3.4568,3.4605,3.4651,3.4678,3.4715,3.4752,3.4813,3.4853,3.4887,3.4937,3.4994,3.504,3.5055,3.5072,3.5066,3.5085,3.5086,3.5088,3.509,3.5082,3.5069,3.5069,3.5079,3.508,3.508]}]]